Weather History for KD55 - October, 2012

Change the Weather History Date:

Wednesday, October 3, 2012

  Actual Average (KDVL) Record (KDVL)
Temperature  
Mean Temperature 40 °F -  
Max Temperature 48 °F 60 °F 80 °F (1963)
Min Temperature 33 °F 38 °F 21 °F (1989)
Degree Days  
Heating Degree Days 24    
Moisture  
Dew Point 36 °F    
Average Humidity 86    
Maximum Humidity 100    
Minimum Humidity 62    
Precipitation  
Precipitation 0.94 in - - ()
Sea Level Pressure  
Sea Level Pressure 29.99 in    
Wind  
Wind Speed 13 mph (North)    
Max Wind Speed 25 mph    
Max Gust Speed 34 mph    
Visibility 8 miles    
Events Rain , Snow    
Averages and records for this station are not official NWS values.
T = Trace of Precipitation, MM = Missing Value Source: NWS Daily Summary

Daily Weather History Graph

Daily Weather History Graph

Search for Another Location

Airport or City:

Trip Planner

Search our weather history database for the weather conditions in past years. The results will help you decide how hot, cold, wet, or windy it might be!

Date:

Astronomy

Oct. 03, 2012 Rise Set
Actual Time 7:36 AM CDT 7:07 PM CDT
Civil Twilight 7:05 AM CDT 7:38 PM CDT
Nautical Twilight 6:28 AM CDT 8:14 PM CDT
Astronomical Twilight 5:51 AM CDT 8:51 PM CDT
Moon 8:39 PM CDT (10/3) 11:21 AM CDT (10/3)
Length of Visible Light 12h 33m
Length of Day
11h 30m
Waning Gibbous, 88% of the Moon is Illuminated
Oct 3
Waning Gibbous
Oct 8
Last Quarter
Oct 15
New
Oct 21
First Quarter
Oct 29
Full

Hourly Weather History & Observations

Time (CDT) Temp. Windchill Dew Point Humidity Pressure Visibility Wind Dir Wind Speed Gust Speed Precip Events Conditions
12:15 AM 48.2 °F - 35.6 °F 62% 29.78 in 10.0 mi WNW 11.5 mph - 0.04 in   Clear
12:35 AM 48.2 °F - 37.4 °F 66% 29.78 in 10.0 mi WNW 13.8 mph - 0.04 in   Clear
12:55 AM 48.2 °F - 37.4 °F 66% 29.78 in 10.0 mi WNW 12.7 mph 19.6 mph 0.04 in   Clear
1:15 AM 46.4 °F 40.7 °F 37.4 °F 71% 29.79 in 10.0 mi NW 12.7 mph - N/A   Clear
1:35 AM 46.4 °F 41.1 °F 35.6 °F 66% 29.80 in 10.0 mi NW 11.5 mph - N/A   Clear
1:55 AM 44.6 °F 39.2 °F 35.6 °F 71% 29.82 in 10.0 mi NNW 10.4 mph - N/A   Clear
2:15 AM 42.8 °F 37.5 °F 35.6 °F 76% 29.84 in 10.0 mi NW 9.2 mph - N/A   Clear
2:35 AM 41.0 °F 34.7 °F 33.8 °F 76% 29.85 in 10.0 mi NW 10.4 mph - N/A   Clear
2:55 AM 41.0 °F 35.2 °F 32.0 °F 70% 29.86 in 10.0 mi WNW 9.2 mph - N/A   Clear
3:15 AM 39.2 °F 33.0 °F 32.0 °F 75% 29.86 in 10.0 mi WNW 9.2 mph - N/A   Clear
3:35 AM 41.0 °F 35.2 °F 32.0 °F 70% 29.87 in 10.0 mi WNW 9.2 mph - 0.02 in   Clear
3:55 AM 39.2 °F 33.0 °F 32.0 °F 75% 29.88 in 10.0 mi NW 9.2 mph - 0.03 in   Clear
4:15 AM 37.4 °F 30.3 °F 32.0 °F 81% 29.88 in 10.0 mi NW 10.4 mph - N/A   Clear
4:35 AM 35.6 °F 28.0 °F 32.0 °F 87% 29.88 in 10.0 mi NW 10.4 mph - N/A   Clear
4:55 AM 37.4 °F 29.8 °F 32.0 °F 81% 29.88 in 10.0 mi NW 11.5 mph - N/A Snow Light Snow
5:15 AM 35.6 °F 28.6 °F 32.0 °F 87% 29.88 in 10.0 mi NW 9.2 mph - N/A Snow Light Snow
5:35 AM 33.8 °F 27.0 °F 30.2 °F 87% 29.89 in 10.0 mi NW 8.1 mph - N/A   Clear
5:55 AM 33.8 °F 26.4 °F 30.2 °F 87% 29.90 in 10.0 mi NW 9.2 mph - N/A   Clear
6:15 AM 33.8 °F 28.6 °F 30.2 °F 87% 29.91 in 10.0 mi WNW 5.8 mph - N/A   Clear
6:35 AM 33.8 °F 27.7 °F 30.2 °F 87% 29.91 in 10.0 mi NW 6.9 mph - N/A Snow Light Snow
6:55 AM 33.8 °F 25.8 °F 30.2 °F 87% 29.91 in 10.0 mi NW 10.4 mph - N/A Snow Light Snow
7:15 AM 33.8 °F 27.7 °F 30.2 °F 87% 29.92 in 10.0 mi NW 6.9 mph - N/A Snow Light Snow
7:35 AM 35.6 °F 30.7 °F 32.0 °F 87% 29.92 in 10.0 mi NW 5.8 mph - N/A   Clear
7:55 AM 33.8 °F 28.6 °F 32.0 °F 93% 29.94 in 10.0 mi WNW 5.8 mph - 0.01 in Snow Light Snow
8:15 AM 35.6 °F 31.7 °F 32.0 °F 87% 29.95 in 10.0 mi NW 4.6 mph - N/A Snow Light Snow
8:35 AM 35.6 °F 29.2 °F 32.0 °F 87% 29.95 in 10.0 mi NNW 8.1 mph - N/A   Clear
8:55 AM 37.4 °F 31.4 °F 32.0 °F 81% 29.95 in 10.0 mi NNW 8.1 mph - N/A   Clear
9:15 AM 39.2 °F 33.0 °F 33.8 °F 81% 29.96 in 10.0 mi NNW 9.2 mph - N/A   Clear
9:35 AM 39.2 °F 32.5 °F 35.6 °F 87% 29.97 in 10.0 mi North 10.4 mph - N/A   Scattered Clouds
9:55 AM 41.0 °F 34.3 °F 35.6 °F 81% 29.99 in 10.0 mi North 11.5 mph - N/A   Overcast
10:15 AM 41.0 °F 34.3 °F 37.4 °F 87% 29.99 in 10.0 mi North 11.5 mph - N/A   Overcast
10:35 AM 42.8 °F 36.2 °F 37.4 °F 81% 29.98 in 10.0 mi North 12.7 mph - N/A   Overcast
10:55 AM 44.6 °F 37.4 °F 39.2 °F 81% 29.95 in 10.0 mi North 16.1 mph 24.2 mph N/A   Overcast
11:15 AM 44.6 °F 36.6 °F 41.0 °F 87% 29.96 in 7.0 mi NNE 19.6 mph 25.3 mph N/A   Overcast
11:35 AM 44.6 °F 36.9 °F 39.2 °F 81% 29.96 in 10.0 mi NNE 18.4 mph 28.8 mph N/A   Overcast
11:55 AM 44.6 °F 37.2 °F 39.2 °F 81% 29.98 in 10.0 mi NNE 17.3 mph - N/A   Overcast
12:15 PM 44.6 °F 36.9 °F 39.2 °F 81% 30.01 in 10.0 mi NNE 18.4 mph - N/A   Overcast
12:35 PM 44.6 °F 37.8 °F 39.2 °F 81% 30.02 in 8.0 mi NNE 15.0 mph 21.9 mph N/A Rain Light Rain
12:55 PM 44.6 °F 36.6 °F 39.2 °F 81% 30.02 in 10.0 mi NNE 19.6 mph 23.0 mph N/A   Overcast
1:15 PM 42.8 °F 35.1 °F 39.2 °F 87% 30.02 in 6.0 mi North 16.1 mph - 0.01 in Rain Light Rain
1:35 PM 41.0 °F 33.1 °F 39.2 °F 93% 30.02 in 4.0 mi NNE 15.0 mph 19.6 mph 0.07 in   Overcast
1:55 PM 41.0 °F 33.5 °F 39.2 °F 93% 30.02 in 4.0 mi NNE 13.8 mph - 0.12 in Rain Light Rain
2:15 PM 41.0 °F 32.2 °F 39.2 °F 93% 30.02 in 4.0 mi North 18.4 mph 23.0 mph 0.03 in   Overcast
2:35 PM 41.0 °F 32.5 °F 39.2 °F 93% 30.02 in 7.0 mi NNE 17.3 mph 24.2 mph 0.05 in Rain Light Rain
2:55 PM 41.0 °F 33.1 °F 39.2 °F 93% 30.03 in 6.0 mi NNE 15.0 mph - 0.07 in   Overcast
3:15 PM 41.0 °F 32.5 °F 39.2 °F 93% 30.03 in 7.0 mi NNE 17.3 mph 23.0 mph N/A Rain Light Rain
3:35 PM 41.0 °F 32.5 °F 39.2 °F 93% 30.05 in 5.0 mi North 17.3 mph 24.2 mph 0.02 in   Overcast
4:15 PM 39.2 °F 29.8 °F 37.4 °F 93% 30.06 in 2.5 mi NNE 18.4 mph 26.5 mph 0.04 in Rain Rain
4:35 PM 39.2 °F 30.5 °F 37.4 °F 93% 30.07 in 3.0 mi North 16.1 mph 24.2 mph 0.10 in   Overcast
4:55 PM 39.2 °F 30.2 °F 37.4 °F 93% 30.08 in 4.0 mi North 17.3 mph 24.2 mph 0.14 in   Overcast
5:15 PM 39.2 °F 30.2 °F 37.4 °F 93% 30.08 in 5.0 mi North 17.3 mph 24.2 mph 0.02 in   Overcast
5:35 PM 39.2 °F 29.3 °F 37.4 °F 93% 30.09 in 3.0 mi North 20.7 mph 25.3 mph 0.06 in   Overcast
5:55 PM 39.2 °F 29.6 °F 37.4 °F 93% 30.09 in 4.0 mi NNE 19.6 mph 26.5 mph 0.11 in   Overcast
6:15 PM 39.2 °F 30.2 °F 37.4 °F 93% 30.10 in 4.0 mi NNE 17.3 mph 24.2 mph 0.02 in   Overcast
6:35 PM 39.2 °F 29.8 °F 37.4 °F 93% 30.11 in 5.0 mi NNE 18.4 mph 26.5 mph 0.05 in   Overcast
6:55 PM 39.2 °F 29.6 °F 37.4 °F 93% 30.11 in 5.0 mi North 19.6 mph 24.2 mph 0.08 in   Overcast
7:15 PM 39.2 °F 28.5 °F 35.6 °F 87% 30.12 in 5.0 mi NNE 24.2 mph 28.8 mph 0.03 in   Overcast
7:35 PM 37.4 °F 26.4 °F 35.6 °F 93% 30.11 in 3.0 mi NNE 23.0 mph 28.8 mph 0.10 in   Overcast
7:55 PM 37.4 °F 27.2 °F 35.6 °F 93% 30.12 in 4.0 mi NNE 19.6 mph 27.6 mph 0.15 in   Overcast
8:15 PM 37.4 °F 26.9 °F 35.6 °F 93% 30.12 in 5.0 mi NNE 20.7 mph 28.8 mph 0.02 in   Overcast
8:35 PM 37.4 °F 27.5 °F 35.6 °F 93% 30.13 in 10.0 mi NNE 18.4 mph 25.3 mph 0.03 in Rain Light Rain
8:55 PM 37.4 °F 26.9 °F 35.6 °F 93% 30.13 in 10.0 mi NNE 20.7 mph 26.5 mph 0.03 in Rain Light Rain
9:15 PM 37.4 °F 26.4 °F 35.6 °F 93% 30.12 in 7.0 mi NNE 23.0 mph 28.8 mph N/A   Overcast
9:35 PM 37.4 °F 26.4 °F 35.6 °F 93% 30.11 in 5.0 mi NNE 23.0 mph 29.9 mph 0.02 in Snow Light Snow
10:15 PM 37.4 °F 26.6 °F 35.6 °F 93% 30.12 in 5.0 mi NNE 21.9 mph 32.2 mph 0.02 in   Overcast
10:35 PM 37.4 °F 26.9 °F 35.6 °F 93% 30.12 in 6.0 mi North 20.7 mph 31.1 mph 0.04 in   Overcast
10:55 PM 35.6 °F 24.5 °F 35.6 °F 100% 30.11 in 5.0 mi North 20.7 mph 32.2 mph 0.07 in   Overcast
11:15 PM 35.6 °F 24.2 °F 35.6 °F 100% 30.11 in 4.0 mi North 21.9 mph 31.1 mph 0.02 in   Overcast
11:35 PM 35.6 °F 23.7 °F 35.6 °F 100% 30.11 in 6.0 mi North 24.2 mph 34.5 mph 0.03 in Rain Light Rain
11:55 PM 35.6 °F 23.4 °F 35.6 °F 100% 30.11 in 5.0 mi North 25.3 mph 33.4 mph 0.05 in   Overcast